Regional Weather Roundup
Issued by NWS San Angelo, TX

Home | Current Version | Previous Version | Text Only | Print | Product List | Glossary On
Versions: 1 2 3 4 5 6 7 8 9 10 11 12 13 14 15 16 17 18 19 20 21 22 23 24 25 26 27 28 29 30 31 32 33 34 35 36 37 38 39 40 41 42 43 44 45 46 47 48 49 50
000
ASUS44 KSJT 191810
RWRSJT
WEST CENTRAL TEXAS REGIONAL WEATHER ROUNDUP
NATIONAL WEATHER SERVICE SAN ANGELO TX
1200 PM CST FRI DEC 19 2014

NOTE: "FAIR" INDICATES FEW OR NO CLOUDS BELOW 12,000 FEET WITH NO
SIGNIFICANT WEATHER AND/OR OBSTRUCTIONS TO VISIBILITY.

TXZ049-054-064>066-071>073-076>078-098-099-113-114-127-128-139-140-
154-155-168>170-191900
...LOCATIONS ACROSS WEST CENTRAL TEXAS...

CITY           SKY/WX    TMP DP  RH WIND       PRES   REMARKS
SAN ANGELO     CLOUDY    48  43  82 NE5       30.18F
ABILENE        CLOUDY    46  41  82 N5        30.19F
DYESS AFB      CLOUDY    45  39  79 N3        30.18F
JUNCTION       CLOUDY    51  45  79 E9        30.15F
SWEETWATER     CLOUDY    44  39  83 N3        30.21F
BROWNWOOD      CLOUDY    48  43  81 NE3       30.18F
COLEMAN        PTCLDY    51  45  79 N9        30.17F
SONORA         SUNNY     55  45  67 VRB7      30.19F
OZONA          CLOUDY    46  45  93 N7        30.19F
BRADY          CLOUDY    46  45  93 NE7       30.15F
$$

TEXAS PANHANDLE/OKLAHOMA PANHANDLE

CITY           SKY/WX    TMP DP  RH WIND       PRES   REMARKS
AMARILLO       FOG       37  37 100 S8        30.18F VSB 1/2 WCI  31
BORGER         CLOUDY    40  35  83 VRB5      30.18F HAZE    WCI  37
CANADIAN       RAIN      40  39  96 S7        30.19F WCI  35
DALHART        PTSUNNY   39  33  79 SW5       30.15F HAZE    WCI  36
DUMAS          CLOUDY    36  33  87 SW8       30.17S FOG     WCI  30
GUYMON         NOT AVBL
HEREFORD       CLOUDY    40  39  95 W3        30.17F FOG
PAMPA          CLOUDY    38  36  91 S8        30.18F WCI  32
PERRYTON       CLOUDY    40  35  81 SW7       30.18S WCI  35
$$

SOUTHERN PANHANDLE/SOUTH PLAINS/ROLLING PLAINS

CITY           SKY/WX    TMP DP  RH WIND       PRES   REMARKS
LUBBOCK        CLOUDY    38  37  97 VRB5      30.18F FOG     WCI  34
SNYDER         CLOUDY    42  37  85 CALM      30.19F
CHILDRESS      CLOUDY    42  37  82 CALM      30.22F
SEMINOLE       CLOUDY    40  37  90 CALM      30.19F
$$

PERMIAN BASIN

CITY           SKY/WX    TMP DP  RH WIND       PRES   REMARKS
MIDLAND        CLOUDY    44  39  82 CALM      30.18F
ODESSA         CLOUDY    45  38  76 CALM      30.18F
WINK           CLOUDY    46  38  73 CALM      30.19S
$$

FAR WEST/SOUTHWEST MOUNTAINS/TRANS PECOS

CITY           SKY/WX    TMP DP  RH WIND       PRES   REMARKS
ALPINE         PTCLDY    56  30  35 W12       30.24F
DRYDEN           N/A     59  41  51 VRB3      30.14F
EL PASO        MOSUNNY   49  37  63 NE3       30.23S
FORT STOCKTON  SUNNY     57  36  45 W14G22    30.18S
GUADALUPE PASS NOT AVBL
MARFA          SUNNY     52  30  43 W15       30.22F
PECOS          CLEAR     55  38  52 NW9       30.19F
$$

DALLAS/FORT WORTH METROPLEX

CITY           SKY/WX    TMP DP  RH WIND       PRES   REMARKS
DFW AIRPORT    CLOUDY    47  44  90 N12       30.17F FOG
FTW MEACHAM    CLOUDY    47  44  90 N12       30.17F FOG
DAL-EXECUTIVE  CLOUDY    49  45  86 N9        30.17F FOG
GRAND PRAIRIE  CLOUDY    46  46 100 N12       30.19F FOG
ADDISON        CLOUDY    46  45  93 N9        30.19F
MESQUITE       CLOUDY    46  45  93 N10       30.19F FOG
LANCASTER      CLOUDY    47  44  90 N8        30.19F FOG
$$

NORTH CENTRAL TEXAS

CITY           SKY/WX    TMP DP  RH WIND       PRES   REMARKS
SHRMAN/DENISON CLOUDY    46  45  97 N8        30.21F FOG
GAINESVILLE    CLOUDY    45  42  89 N6        30.21F
BRIDGEPORT     CLOUDY    48  45  91 NE5       30.22S
DENTON         CLOUDY    46  43  89 N10       30.19F
WAXAHACHIE     CLOUDY    46  46 100 N8        30.19F FOG
GRANBURY       CLOUDY    48  44  86 N5        30.19F
$$

WESTERN NORTH TEXAS

CITY           SKY/WX    TMP DP  RH WIND       PRES   REMARKS
WICHITA FALLS  CLOUDY    45  41  86 NE9       30.20F
VERNON         CLOUDY    43  39  84 CALM      30.23F
BRECKENRIDGE   CLOUDY    49  43  78 NW6       30.19F
COMANCHE       CLOUDY    46  46 100 N5        30.18F
$$

CENTRAL AND SOUTH CENTRAL TEXAS

CITY           SKY/WX    TMP DP  RH WIND       PRES   REMARKS
AUSTIN/BERGSTM PTSUNNY   54  50  86 N17       30.12F
WACO           CLOUDY    48  47  96 N13       30.16F FOG
HILLSBORO      CLOUDY    48  46  92 N10       30.17F FOG
TEMPLE         CLOUDY    48  45  87 N14       30.13F
KILLEEN-GRAY   CLOUDY    48  48 100 N12       30.14F
FORT HOOD      CLOUDY    50  48  93 N14       30.14F
GEORGETOWN     CLOUDY    54  48  82 N10G18    30.12F
LAGO VISTA     CLOUDY    54  50  85 N7        30.13F
SAN MARCOS     PTSUNNY   57  52  82 NE18      30.12S
NEW BRAUNFELS  PTSUNNY   60  51  72 N14G23    30.09F
RANDOLPH AFB   PTSUNNY   58  50  75 N16       30.10F
SAN ANTONIO    PTSUNNY   59  49  69 N13       30.11S
STINSON        PTSUNNY   61  50  67 NE14G23   30.09F
PLEASANTON     NOT AVBL
LA GRANGE      PTSUNNY   58  53  84 NE10G17   30.06F
GIDDINGS       MOCLDY    56  52  84 NE9G16    30.13F
$$

EAST TEXAS

CITY           SKY/WX    TMP DP  RH WIND       PRES   REMARKS
PARIS          CLOUDY    45  43  93 NE8       30.20F
CLARKSVILLE    NOT AVBL
TYLER          CLOUDY    50  47  89 N8        30.15S
LONGVIEW       CLOUDY    49  46  90 E13G18    30.11F
PALESTINE      CLOUDY    51  50  94 N8        30.14R
NACOGDOCHES    CLOUDY    48  45  87 E10       30.13F
$$

TEXAS HILL COUNTRY AND EDWARDS PLATEAU

CITY           SKY/WX    TMP DP  RH WIND       PRES   REMARKS
LLANO          CLOUDY    52  46  82 NE7       30.19F
HORSESHOE BAY  CLOUDY    53  49  84 N6        30.15F
KERRVILLE      SUNNY     56  47  72 NE6       30.13F
FREDERICKSBRG  PTSUNNY   54  46  73 NE10      30.13S
ROCKSPRINGS    PTCLDY    55  45  67 NE3       30.14F
HONDO          CLOUDY    60  50  69 NE13      30.13S
UVALDE         CLOUDY    53  45  73 N5        30.12F
DEL RIO        PTSUNNY   65  51  60 N7        30.12F
$$

SOUTHEAST TEXAS

CITY           SKY/WX    TMP DP  RH WIND       PRES   REMARKS
COLLEGE STN    LGT RAIN  53  51  93 E14       30.07F
CALDWELL       CLOUDY    54  54 100 N7        30.13F
CROCKETT       CLOUDY    54  52  94 E10       30.13F
BRENHAM        SUNNY     55  53  92 NE10G17   30.10F
HUNTSVILLE     LGT RAIN  52  50  93 NE7       30.10F
CONROE         LGT RAIN  51  49  92 N12G17    30.10F
HOUSTON BUSH   HVY RAIN  53  52  96 N14       30.08S FOG
HOUSTON HOBBY  RAIN      58  56  93 N13       30.05F
PERLAND        HVY RAIN  60  59  96 NE12G28   30.05F FOG
WHARTON        RAIN      53  52  97 N13G21    30.06S
$$

THE UPPER TEXAS COAST

CITY           SKY/WX    TMP DP  RH WIND       PRES   REMARKS
ORANGE         LGT RAIN  57  56  98 N6        30.08F
PORT ARTHUR    RAIN      59  57  93 NE9       30.05F FOG
GALVESTON      HVY RAIN  60  60 100 N20       30.02S FOG
ANGLETON       RAIN      59  58  96 NE17      30.01F
BAY CITY       RAIN      59  59 100 N12       30.02F
$$

TEXAS COASTAL BEND, RIO GRANDE PLAINS DEEP SOUTH TEXAS

CITY           SKY/WX    TMP DP  RH WIND       PRES   REMARKS
VICTORIA       CLOUDY    55  53  93 N15G23    30.05F
BEEVILLE       CLOUDY    56  54  91 NE13      30.06F
ROCKPORT       LGT RAIN  56  53  90 N15       30.03S
PORT ARANSAS   CLOUDY    57  55  94 N18       30.03F
PORT LAVACA    RAIN      54  53  97 N15       30.05R
CORPUS CHRISTI DRIZZLE   56  53  90 N17       30.04F
KINGSVILLE NAS DRIZZLE   57  56  96 N16       30.06S FOG
COTULLA        CLOUDY    60  52  74 NE12      30.10F
LAREDO         CLOUDY    57  55  94 N13       30.12F
BROWNSVILLE    CLOUDY    71  66  84 W7        30.00F
PORT ISABEL    CLOUDY    69  65  86 NW8       30.00F FOG
HEBBRONVILLE   CLOUDY    54  54  98 N14       30.08F FOG
MCALLEN        CLOUDY    67  64  90 NW10      30.02F
WESLACO        CLOUDY    67  64  87 NW7       30.01F FOG
FALFURRIAS     CLOUDY    56  54  92 N12G17    30.06S
EDINBURG       CLOUDY    69  64  83 NW8       30.03F
$$



USA.gov is the U.S. government's official web portal to all federal, state and local government web resources and services.